TimeEST,TemperatureF,Dew PointF,Humidity,Sea Level PressureIn,VisibilityMPH,Wind Direction,Wind SpeedMPH,Gust SpeedMPH,PrecipitationIn,Events,Conditions,WindDirDegrees,DateUTC
12:51 AM,19.0,14.0,81,30.34,10.0,East,4.6,-,N/A,,Overcast,80,2013-12-09 05:51:00
1:51 AM,19.0,15.1,85,30.30,10.0,NE,5.8,-,N/A,,Overcast,40,2013-12-09 06:51:00
2:51 AM,19.9,14.0,78,30.27,10.0,East,3.5,-,N/A,,Overcast,80,2013-12-09 07:51:00
3:51 AM,19.9,14.0,78,30.21,10.0,ENE,3.5,-,N/A,,Overcast,60,2013-12-09 08:51:00
4:51 AM,19.9,16.0,85,30.16,5.0,ENE,3.5,-,0.00,,Overcast,60,2013-12-09 09:51:00
5:51 AM,21.0,18.0,88,30.10,9.0,ENE,5.8,-,0.00,,Overcast,70,2013-12-09 10:51:00
6:51 AM,26.1,19.0,75,30.04,10.0,SE,11.5,17.3,0.00,,Overcast,140,2013-12-09 11:51:00
7:30 AM,26.6,19.4,74,29.93,2.0,SSE,10.4,20.7,0.00,Snow,Light Snow,150,2013-12-09 12:30:00
7:35 AM,26.6,21.2,80,29.93,1.5,SSE,8.1,-,0.00,Snow,Light Snow,150,2013-12-09 12:35:00
7:41 AM,26.6,21.2,80,29.92,3.0,SSE,9.2,16.1,0.00,Snow,Light Snow,150,2013-12-09 12:41:00
7:51 AM,27.0,21.0,78,29.99,10.0,SSE,6.9,-,0.00,,Overcast,150,2013-12-09 12:51:00
8:26 AM,28.4,21.2,74,29.89,10.0,SSE,6.9,-,N/A,,Overcast,160,2013-12-09 13:26:00
8:51 AM,28.9,21.0,72,29.95,10.0,South,6.9,-,N/A,,Overcast,170,2013-12-09 13:51:00
9:38 AM,30.2,23.0,75,29.86,10.0,South,8.1,-,N/A,,Overcast,170,2013-12-09 14:38:00
9:51 AM,30.0,23.0,75,29.93,10.0,South,9.2,-,N/A,,Overcast,170,2013-12-09 14:51:00
10:06 AM,30.2,23.0,75,29.86,10.0,South,6.9,-,N/A,,Overcast,180,2013-12-09 15:06:00
10:51 AM,33.1,26.1,75,29.90,10.0,South,11.5,19.6,N/A,,Overcast,180,2013-12-09 15:51:00
11:51 AM,34.0,27.0,75,29.85,10.0,South,21.9,31.1,N/A,,Overcast,190,2013-12-09 16:51:00
12:51 PM,33.1,26.1,75,29.82,10.0,SSW,20.7,31.1,0.01,,Overcast,200,2013-12-09 17:51:00
1:51 PM,33.1,27.0,78,29.81,10.0,SSW,18.4,21.9,N/A,,Overcast,200,2013-12-09 18:51:00
2:01 PM,33.8,28.4,81,29.73,10.0,SSW,13.8,21.9,N/A,,Overcast,210,2013-12-09 19:01:00
2:51 PM,33.1,28.0,82,29.79,10.0,SW,16.1,23.0,N/A,,Overcast,220,2013-12-09 19:51:00
3:51 PM,33.1,28.9,85,29.81,1.8,SW,11.5,19.6,0.00,Snow,Light Snow,230,2013-12-09 20:51:00
4:09 PM,33.8,30.2,87,29.75,2.0,SW,9.2,-,0.00,Snow,Light Snow,220,2013-12-09 21:09:00
4:15 PM,33.8,30.2,87,29.74,3.0,SSW,9.2,-,0.00,Snow,Light Snow,210,2013-12-09 21:15:00
4:32 PM,33.8,30.2,87,29.73,10.0,SSW,10.4,-,0.00,,Overcast,210,2013-12-09 21:32:00
4:51 PM,34.0,30.9,89,29.80,10.0,SW,13.8,-,0.00,,Overcast,220,2013-12-09 21:51:00
5:16 PM,33.8,30.2,87,29.72,2.5,SW,11.5,19.6,0.00,Snow,Light Snow,230,2013-12-09 22:16:00
5:33 PM,33.8,30.2,87,29.73,1.0,SW,16.1,26.5,0.01,Snow,Light Snow,230,2013-12-09 22:33:00
5:46 PM,33.8,32.0,93,29.74,2.0,WSW,10.4,-,0.01,Snow,Light Snow,240,2013-12-09 22:46:00
5:51 PM,33.1,32.0,96,29.80,6.0,WSW,11.5,20.7,0.01,Snow,Light Snow,240,2013-12-09 22:51:00
5:59 PM,33.8,30.2,87,29.75,10.0,WSW,16.1,29.9,N/A,,Overcast,250,2013-12-09 22:59:00
6:06 PM,33.8,30.2,87,29.75,7.0,WSW,12.7,29.9,N/A,,Overcast,240,2013-12-09 23:06:00
6:19 PM,33.8,30.2,87,29.76,2.0,WSW,15.0,28.8,0.00,Snow,Light Snow,240,2013-12-09 23:19:00
6:31 PM,33.8,30.2,87,29.76,3.0,WSW,13.8,27.6,0.00,Snow,Light Snow,250,2013-12-09 23:31:00
6:39 PM,32.0,30.2,93,29.76,2.0,WSW,12.7,23.0,0.00,Snow,Light Snow,240,2013-12-09 23:39:00
6:45 PM,32.0,30.2,93,29.76,1.0,WSW,8.1,19.6,0.00,Snow,Light Snow,240,2013-12-09 23:45:00
6:46 PM,32.0,30.9,96,29.82,1.0,WSW,10.4,20.7,0.00,Snow,Light Snow,240,2013-12-09 23:46:00
6:58 PM,32.0,30.2,93,29.77,3.0,WSW,13.8,24.2,0.00,Snow,Light Snow,240,2013-12-09 23:58:00
7:51 PM,30.9,28.0,89,29.85,8.0,WSW,15.0,29.9,0.00,,Overcast,250,2013-12-10 00:51:00
8:51 PM,30.0,27.0,88,29.86,10.0,WSW,11.5,19.6,N/A,,Overcast,250,2013-12-10 01:51:00
9:51 PM,30.0,26.1,85,29.84,9.0,WSW,12.7,24.2,0.00,,Overcast,240,2013-12-10 02:51:00
10:01 PM,30.2,24.8,80,29.79,10.0,SW,19.6,32.2,0.01,,Overcast,230,2013-12-10 03:01:00
10:51 PM,28.9,24.1,82,29.84,9.0,WSW,17.3,25.3,0.01,,Overcast,250,2013-12-10 03:51:00
11:51 PM,28.9,24.1,82,29.83,9.0,WSW,11.5,26.5,N/A,,Overcast,240,2013-12-10 04:51:00